{"data":{"norad_id":65124,"intl_designator":"2025-170F","name":"GEESAT-4 06","alt_names":[],"object_type":"PAYLOAD","status":"ACTIVE","operator":null,"country":"PRC","launch_date":"2025-08-08","launch_site_code":"YSLA","launch_vehicle":null,"mission":null,"orbit_class":"UNKNOWN","rcs_meters":null,"size_class":null,"mass_kg":null,"dimensions":null,"purposes":[],"wikipedia_slug":null,"has_3d_model":false,"image_url":null,"decayed_at":null,"tle_current":{"epoch":"2026-05-25T04:19:14.180736Z","epoch_age_seconds":73274,"freshness":"FRESH","line1":"1 65124U 25170F   26145.18002524  .00001450  00000+0  19958-3 0  9997","line2":"2 65124  49.9849 280.8093 0018636 311.3292  48.6042 14.83917387 43011","mean_motion":14.83917387,"eccentricity":0.0018636,"inclination_deg":49.9849,"raan_deg":280.8093,"arg_perigee_deg":311.3292,"mean_anomaly_deg":48.6042,"bstar":0.00019958,"rev_number":4301,"period_min":97.040442589005,"perigee_km":603.94994696157,"apogee_km":630.02216962444,"semimajor_km":6995.123058293,"source":"CELESTRAK","updated_at":"2026-05-25T13:38:05.138477Z"}}}